This is the latest recevied weather packets stored in our database for station/object KD7AWQ. If no packets are shown the sender has not sent any weather packets the latest 10 day(s).
| Time | Temp. | Humidity | Pressure | Rain* | Wind** | Luminosity | Snow |
|---|---|---|---|---|---|---|---|
| 1788126650 | 33.89° C | 29% | 1186.4 hPa | 0 mm | - | 795 W/m² | - |
| 1788126345 | 33.33° C | 30% | 1186 hPa | 0 mm | - | 813 W/m² | - |
| 1788126040 | 33.33° C | 31% | 1186.4 hPa | 0 mm | - | 830 W/m² | - |
| 1788125740 | 32.78° C | 30% | 1186.7 hPa | 0 mm | - | 846 W/m² | - |
| 1788125435 | 31.67° C | 32% | 1186.6 hPa | 0 mm | - | 860 W/m² | - |
| 1788125131 | 31.67° C | 33% | 1186.9 hPa | 0 mm | - | 881 W/m² | - |
| 1788124826 | 31.67° C | 33% | 1186.9 hPa | 0 mm | - | 911 W/m² | - |
| 1788124521 | 32.22° C | 32% | 1187 hPa | 0 mm | - | 929 W/m² | - |
| 1788124221 | 32.22° C | 32% | 1187 hPa | 0 mm | - | 930 W/m² | - |
| 1788123921 | 31.67° C | 32% | 1187.2 hPa | 0 mm | - | 994 W/m² | - |
| 1788123615 | 31.67° C | 33% | 1187.1 hPa | 0 mm | - | 1027 W/m² | - |
| 1788123313 | 31.11° C | 34% | 1187.2 hPa | 0 mm | - | 540 W/m² | - |
| 1788123009 | 32.78° C | 32% | 1187.5 hPa | 0 mm | - | 643 W/m² | - |
| 1788122707 | 32.78° C | 31% | 1187.3 hPa | 0 mm | - | 777 W/m² | - |
| 1788122401 | 32.78° C | 31% | 1187.5 hPa | 0 mm | - | 661 W/m² | - |
| 1788122098 | 32.78° C | 31% | 1187.4 hPa | 0 mm | - | 1083 W/m² | - |
| 1788121797 | 31.67° C | 32% | 1187.7 hPa | 0 mm | - | 1171 W/m² | - |
| 1788121492 | 31.67° C | 33% | 1187.8 hPa | 0 mm | - | 913 W/m² | - |
| 1788121189 | 31.67° C | 33% | 1188 hPa | 0 mm | - | 626 W/m² | - |
| 1788120887 | 32.22° C | 32% | 1188 hPa | 0 mm | - | 745 W/m² | - |
| 1788120583 | 32.22° C | 33% | 1188.1 hPa | 0 mm | - | 1049 W/m² | - |
| 1788120283 | 32.22° C | 32% | 1188.1 hPa | 0 mm | - | 548 W/m² | - |
| 1788119977 | 32.22° C | 32% | 1188.3 hPa | 0 mm | - | 1143 W/m² | - |
| 1788119673 | 31.67° C | 33% | 1188.3 hPa | 0 mm | - | 1282 W/m² | - |
| 1788119371 | 31.11° C | 33% | 1188.6 hPa | 0 mm | - | 1223 W/m² | - |
* Rain latest hour (hover to see other rain measurements)
** Current wind speed in m/s (hover to see current wind gust speed)